This is the latest recevied weather packets stored in our database for station/object IZ1UQG-2. If no packets are shown the sender has not sent any weather packets the latest 10 day(s).
| Time | Temp. | Humidity | Pressure | Rain* | Wind** | Luminosity | Snow |
|---|---|---|---|---|---|---|---|
| 1777466704 | 18.89° C | 67% | 1014.7 hPa | 0 mm | - | 132 W/m² | - |
| 1777466344 | 19.44° C | 66% | 1014.6 hPa | 0 mm | - | 281 W/m² | - |
| 1777466164 | 19.44° C | 65% | 1014.5 hPa | 0 mm | - | 163 W/m² | - |
| 1777465756 | 19.44° C | 65% | 1014.6 hPa | 0 mm | - | 343 W/m² | - |
| 1777465505 | 19.44° C | 65% | 1014.6 hPa | 0 mm | - | 179 W/m² | - |
| 1777465323 | 19.44° C | 65% | 1014.4 hPa | 0 mm | - | 325 W/m² | - |
| 1777465264 | 19.44° C | 66% | 1014.6 hPa | 0 mm | - | 334 W/m² | - |
| 1777465204 | 19.44° C | 66% | 1014.6 hPa | 0 mm | - | 327 W/m² | - |
| 1777464844 | 19.44° C | 65% | 1014.5 hPa | 0 mm | - | 352 W/m² | - |
| 1777464784 | 19.44° C | 65% | 1014.6 hPa | 0 mm | - | 355 W/m² | - |
| 1777464304 | 18.89° C | 66% | 1014.7 hPa | 0 mm | - | 223 W/m² | - |
| 1777464064 | 19.44° C | 65% | 1014.8 hPa | 0 mm | - | 508 W/m² | - |
| 1777463884 | 18.89° C | 65% | 1014.8 hPa | 0 mm | - | 1016 W/m² | - |
| 1777463284 | 18.89° C | 64% | 1015 hPa | 0 mm | - | 522 W/m² | - |
| 1777462923 | 19.44° C | 64% | 1015 hPa | 0 mm | - | 571 W/m² | - |
| 1777462624 | 19.44° C | 65% | 1015 hPa | 0 mm | - | 1000 W/m² | - |
| 1777462384 | 18.89° C | 67% | 1015.1 hPa | 0 mm | - | 965 W/m² | - |
| 1777461784 | 17.78° C | 75% | 1015.3 hPa | 0 mm | - | 983 W/m² | - |
| 1777460404 | 17.78° C | 76% | 1015.7 hPa | 0 mm | - | 438 W/m² | - |
| 1777460284 | 17.22° C | 77% | 1015.6 hPa | 0 mm | - | 436 W/m² | - |
| 1777458671 | 16.67° C | 77% | 1015.9 hPa | 0 mm | - | 290 W/m² | - |
| 1777458184 | 16.67° C | 79% | 1015.9 hPa | 0 mm | - | 280 W/m² | - |
| 1777458124 | 16.67° C | 79% | 1016 hPa | 0 mm | - | 278 W/m² | - |
| 1777457944 | 16.67° C | 78% | 1015.9 hPa | 0 mm | - | 283 W/m² | - |
| 1777457884 | 16.67° C | 78% | 1015.9 hPa | 0 mm | - | 288 W/m² | - |
* Rain latest hour (hover to see other rain measurements)
** Current wind speed in m/s (hover to see current wind gust speed)